Weather History for Branson, MO

Change the Weather History Date:

Wednesday, February 6, 2013

  Actual Average (KHRO) Record (KHRO)
Temperature  
Mean Temperature 48 °F 39 °F  
Max Temperature 59 °F 49 °F 72 °F (1904)
Min Temperature 37 °F 28 °F -7 °F (1959)
Degree Days  
Heating Degree Days 17 26  
Month to date heating degree days 161  
Since 1 July heating degree days 2647  
Cooling Degree Days 0 0  
Month to date cooling degree days 0  
Year to date cooling degree days 0  
Moisture  
Dew Point 32 °F    
Average Humidity 63    
Maximum Humidity 87    
Minimum Humidity 42    
Precipitation  
Precipitation 0.00 in 0.09 in 1.49 in (1999)
Month to date precipitation 0.52  
Year to date precipitation 3.08  
Snow  
Snow 0.00 in 0.10 in 6.50 in (2002)
Month to date snowfall 1.0  
Since 1 July snowfall 7.0  
Snow Depth -    
Sea Level Pressure  
Sea Level Pressure 30.07 in    
Wind  
Wind Speed 6 mph (ESE)    
Max Wind Speed 16 mph    
Max Gust Speed 21 mph    
Visibility 10 miles    
Events      
T = Trace of Precipitation, MM = Missing Value Source: NWS Daily Summary

Daily Weather History Graph

Daily Weather History Graph

Search for Another Location

Airport:

Trip Planner

Search our weather history database for the weather conditions in past years. The results will help you decide how hot, cold, wet, or windy it might be!

Date:

Astronomy

Feb. 06, 2013 Rise Set
Actual Time 7:09 AM CST 5:44 PM CST
Civil Twilight 6:42 AM CST 6:11 PM CST
Nautical Twilight 6:12 AM CST 6:41 PM CST
Astronomical Twilight 5:42 AM CST 7:12 PM CST
Moon 3:50 AM CST (2/6) 2:06 PM CST (2/6)
Length of Visible Light 11h 28m
Length of Day
10h 34m
Waning Crescent, 17% of the Moon is Illuminated
Feb 6
Waning Crescent
Feb 10
New
Feb 17
First Quarter
Feb 25
Full
Mar 4
Last Quarter

Hourly Weather History & Observations

Time (CST) Temp. Windchill Dew Point Humidity Pressure Visibility Wind Dir Wind Speed Gust Speed Precip Events Conditions
12:15 AM 44.6 °F - 30.2 °F 57% 30.09 in 10.0 mi Calm Calm - N/A   Clear
12:35 AM 44.6 °F - 28.4 °F 53% 30.10 in 10.0 mi Calm Calm - N/A   Clear
12:55 AM 44.6 °F 41.4 °F 28.4 °F 53% 30.10 in 10.0 mi ENE 5.8 mph - N/A   Clear
1:15 AM 44.6 °F 43.1 °F 28.4 °F 53% 30.10 in 10.0 mi ENE 3.5 mph - N/A   Clear
1:35 AM 41.0 °F - 28.4 °F 61% 30.10 in 10.0 mi Calm Calm - N/A   Clear
1:55 AM 41.0 °F - 28.4 °F 61% 30.11 in 10.0 mi Calm Calm - N/A   Clear
2:15 AM 39.2 °F 37.0 °F 28.4 °F 65% 30.11 in 10.0 mi SE 3.5 mph - N/A   Clear
2:35 AM 39.2 °F 35.0 °F 30.2 °F 70% 30.11 in 10.0 mi SE 5.8 mph - N/A   Clear
2:55 AM 41.0 °F 37.1 °F 28.4 °F 61% 30.11 in 10.0 mi ESE 5.8 mph - N/A   Clear
3:15 AM 41.0 °F 36.4 °F 28.4 °F 61% 30.11 in 10.0 mi ESE 6.9 mph - N/A   Clear
3:35 AM 39.2 °F 35.0 °F 28.4 °F 65% 30.11 in 10.0 mi ESE 5.8 mph - N/A   Clear
3:55 AM 39.2 °F 34.2 °F 28.4 °F 65% 30.11 in 10.0 mi SE 6.9 mph - N/A   Clear
4:15 AM 41.0 °F 34.7 °F 28.4 °F 61% 30.11 in 10.0 mi ESE 10.4 mph - N/A   Clear
4:35 AM 41.0 °F 34.7 °F 28.4 °F 61% 30.10 in 10.0 mi ESE 10.4 mph - N/A   Clear
4:55 AM 39.2 °F 34.2 °F 28.4 °F 65% 30.11 in 10.0 mi SE 6.9 mph - N/A   Clear
5:15 AM 39.2 °F 34.2 °F 28.4 °F 65% 30.12 in 10.0 mi ESE 6.9 mph - N/A   Clear
5:35 AM 39.2 °F 34.2 °F 28.4 °F 65% 30.12 in 10.0 mi ESE 6.9 mph - N/A   Clear
6:45 AM 37.4 °F 32.8 °F 28.4 °F 70% 30.14 in 10.0 mi ESE 5.8 mph - N/A   Clear
7:45 AM 37.4 °F 31.4 °F 28.4 °F 70% 30.17 in 10.0 mi ESE 8.1 mph - N/A   Clear
9:48 AM 44.6 °F 38.4 °F 30.2 °F 57% 30.15 in 10.0 mi ESE 12.7 mph 18.4 mph N/A   Clear
10:45 AM 48.2 °F - 30.2 °F 50% 30.16 in 10.0 mi SE 12.7 mph 20.7 mph N/A   Clear
11:45 AM 51.8 °F - 32.0 °F 47% 30.13 in 10.0 mi ESE 12.7 mph - N/A   Scattered Clouds
12:55 PM 53.6 °F - 32.0 °F 44% 30.08 in 10.0 mi ESE 12.7 mph 19.6 mph N/A   Mostly Cloudy
1:45 PM 55.4 °F - 33.8 °F 44% 30.06 in 10.0 mi ESE 12.7 mph - N/A   Mostly Cloudy
2:45 PM 59.0 °F - 35.6 °F 42% 30.04 in 10.0 mi SE 16.1 mph 20.7 mph N/A   Mostly Cloudy
4:50 PM 55.4 °F - 35.6 °F 47% 30.01 in 10.0 mi SE 11.5 mph 17.3 mph N/A   Mostly Cloudy
5:45 PM 51.8 °F - 35.6 °F 54% 30.02 in 10.0 mi SE 10.4 mph - N/A   Mostly Cloudy
6:45 PM 50.0 °F - 35.6 °F 58% 30.02 in 10.0 mi ESE 9.2 mph - N/A   Mostly Cloudy
7:45 PM 48.2 °F - 35.6 °F 62% 30.02 in 10.0 mi SE 11.5 mph - N/A   Mostly Cloudy
7:55 PM 48.2 °F - 35.6 °F 62% 30.02 in 10.0 mi ESE 11.5 mph - N/A   Overcast
8:15 PM 48.2 °F - 37.4 °F 66% 30.01 in 10.0 mi ESE 11.5 mph - N/A   Overcast
8:35 PM 48.2 °F - 37.4 °F 66% 30.01 in 10.0 mi ESE 11.5 mph - N/A   Overcast
8:45 PM 48.2 °F - 37.4 °F 66% 30.01 in 10.0 mi SE 11.5 mph - N/A   Mostly Cloudy
8:55 PM 46.4 °F 41.9 °F 37.4 °F 71% 30.02 in 10.0 mi ESE 9.2 mph - N/A   Mostly Cloudy
9:15 PM 46.4 °F 41.9 °F 37.4 °F 71% 30.02 in 10.0 mi ESE 9.2 mph - N/A   Scattered Clouds
9:35 PM 44.6 °F 40.2 °F 37.4 °F 76% 30.02 in 10.0 mi ESE 8.1 mph - N/A   Scattered Clouds
10:15 PM 44.6 °F 43.1 °F 37.4 °F 76% 30.02 in 10.0 mi ESE 3.5 mph - N/A   Scattered Clouds
10:35 PM 44.6 °F 39.2 °F 37.4 °F 76% 30.01 in 10.0 mi SE 10.4 mph - N/A   Partly Cloudy
10:55 PM 44.6 °F 38.8 °F 37.4 °F 76% 30.00 in 10.0 mi SE 11.5 mph - N/A   Clear
11:15 PM 42.8 °F 38.0 °F 37.4 °F 81% 30.00 in 10.0 mi SE 8.1 mph - N/A   Clear
11:35 PM 42.8 °F 39.3 °F 37.4 °F 81% 30.00 in 10.0 mi ESE 5.8 mph - N/A   Clear
11:55 PM 41.0 °F - 37.4 °F 87% 30.01 in 10.0 mi Calm Calm - N/A   Clear